,,Stat6,,Stat2,,Stat8,,Stat9,,Stat10,,Wind1,,Wind1,
time,status,PA1M_AVG,status,PR1M_SUM,status,RH1M_AVG,status,SR1M_AVG,status,TA1M_AVG,status,W1dAve1m,status,W1sAve1m,
2007-03-17, 00:00:00,VALID,916.783,VALID,0,VALID,100,VALID,32.5353,VALID,18.8933,VALID,38,VALID,0.344097,
2007-03-17, 00:01:00,VALID,916.799,VALID,0,VALID,100,VALID,34.2503,VALID,18.91,VALID,38,VALID,0.405342,
2007-03-17, 00:02:00,VALID,916.812,VALID,0,VALID,100,VALID,36.1182,VALID,18.916,VALID,39,VALID,0.731831,
2007-03-17, 00:03:00,VALID,916.816,VALID,0,VALID,100,VALID,38.2069,VALID,18.9163,VALID,39,VALID,0.544398,
2007-03-17, 00:04:00,VALID,916.829,VALID,0,VALID,100,VALID,40.4823,VALID,18.9424,VALID,39,VALID,0.663681,
2007-03-17, 00:05:00,VALID,916.842,VALID,0,VALID,100,VALID,42.7407,VALID,18.9589,VALID,49,VALID,0.930246,
2007-03-17, 00:06:00,VALID,916.849,VALID,0,VALID,100,VALID,44.8464,VALID,18.9876,VALID,51,VALID,0.402644,
2007-03-17, 00:07:00,VALID,916.863,VALID,0,VALID,100,VALID,46.8501,VALID,19.0036,VALID,51,VALID,0.417696,
2007-03-17, 00:08:00,VALID,916.871,VALID,0,VALID,100,VALID,48.9218,VALID,19.0265,VALID,51,VALID,0.387173,
2007-03-17, 00:09:00,VALID,916.869,VALID,0,VALID,100,VALID,51.0444,VALID,19.0525,VALID,51,VALID,0.119474,
2007-03-17, 00:10:00,VALID,916.868,VALID,0,VALID,100,VALID,53.5236,VALID,19.0879,VALID,51,VALID,0.0203125,
2007-03-17, 00:11:00,VALID,916.871,VALID,0,VALID,100,VALID,56.8348,VALID,19.1169,VALID,51,VALID,0.158984,
2007-03-17, 00:12:00,VALID,916.852,VALID,0,VALID,100,VALID,60.9782,VALID,19.1431,VALID,51,VALID,0.0269886,
2007-03-17, 00:13:00,VALID,916.857,VALID,0,VALID,100,VALID,65.7837,VALID,19.1755,VALID,51,VALID,0.00952744,
2007-03-17, 00:14:00,VALID,916.857,VALID,0,VALID,100,VALID,71.6421,VALID,19.2274,VALID,51,VALID,0.200149,
2007-03-17, 00:15:00,VALID,916.857,VALID,0,VALID,100,VALID,76.9062,VALID,19.2728,VALID,51,VALID,0.0414807,
2007-03-17, 00:16:00,VALID,916.862,VALID,0,VALID,100,VALID,80.4891,VALID,19.3312,VALID,51,VALID,0.0777616,
2007-03-17, 00:17:00,VALID,916.874,VALID,0,VALID,100,VALID,86.2796,VALID,19.3896,VALID,51,VALID,0,
2007-03-17, 00:18:00,VALID,916.883,VALID,0,VALID,100,VALID,94.0908,VALID,19.4283,VALID,51,VALID,0,
2007-03-17, 00:19:00,VALID,916.901,VALID,0,VALID,100,VALID,104.381,VALID,19.4515,VALID,49,VALID,0.188867,
2007-03-17, 00:20:00,VALID,916.921,VALID,0,VALID,100,VALID,109.696,VALID,19.4774,VALID,41,VALID,0.178735,
2007-03-17, 00:21:00,VALID,916.943,VALID,0,VALID,99.9766,VALID,114.553,VALID,19.474,VALID,40,VALID,0.239644,
2007-03-17, 00:22:00,VALID,916.976,VALID,0,VALID,99.9952,VALID,96.4511,VALID,19.4997,VALID,40,VALID,0.499826,
2007-03-17, 00:23:00,VALID,916.981,VALID,0,VALID,99.985,VALID,102.055,VALID,19.5875,VALID,36,VALID,0.784489,
2007-03-17, 00:24:01,VALID,917.018,VALID,0,VALID,99.6442,VALID,83.6136,VALID,19.581,VALID,24,VALID,1.11979,
2007-03-17, 00:25:01,VALID,917.031,VALID,0,VALID,99.4509,VALID,138.258,VALID,19.6105,VALID,28,VALID,1.11124,
2007-03-17, 00:26:01,VALID,917.062,VALID,0,VALID,99.6099,VALID,169.639,VALID,19.6589,VALID,26,VALID,0.509301,
2007-03-17, 00:27:01,VALID,917.079,VALID,0,VALID,99.8833,VALID,176.04,VALID,19.7557,VALID,14,VALID,0.0450994,
2007-03-17, 00:28:00,VALID,917.101,VALID,0,VALID,99.4891,VALID,179.606,VALID,19.7884,VALID,8,VALID,0.0130208,
2007-03-17, 00:29:00,VALID,917.105,VALID,0,VALID,99.3924,VALID,181.389,VALID,19.8246,VALID,356,VALID,0.209722,
2007-03-17, 00:30:00,VALID,917.111,VALID,0,VALID,99.4484,VALID,182.17,VALID,19.886,VALID,360,VALID,0.157774,
2007-03-17, 00:31:00,VALID,917.111,VALID,0,VALID,99.5666,VALID,213.296,VALID,19.9938,VALID,29,VALID,0.497954,
2007-03-17, 00:32:00,VALID,917.106,VALID,0,VALID,98.9741,VALID,230.362,VALID,20.0417,VALID,12,VALID,0.558061,
2007-03-17, 00:33:00,VALID,917.114,VALID,0,VALID,98.6689,VALID,197.572,VALID,20.0747,VALID,349,VALID,0.407703,
2007-03-17, 00:34:00,VALID,917.102,VALID,0,VALID,98.1793,VALID,196.349,VALID,20.0714,VALID,340,VALID,0.231957,
2007-03-17, 00:35:01,VALID,917.1,VALID,0,VALID,97.7826,VALID,200.561,VALID,20.0363,VALID,340,VALID,0.137074,
2007-03-17, 00:36:00,VALID,917.095,VALID,0,VALID,97.9911,VALID,200.527,VALID,20.0293,VALID,340,VALID,0.0376736,
2007-03-17, 00:37:00,VALID,917.104,VALID,0,VALID,98.2175,VALID,202.191,VALID,20.1071,VALID,358,VALID,0.222656,
2007-03-17, 00:38:01,VALID,917.106,VALID,0,VALID,98.3039,VALID,202.615,VALID,20.215,VALID,17,VALID,0.121189,
2007-03-17, 00:39:00,VALID,917.127,VALID,0,VALID,98.2149,VALID,199.966,VALID,20.2861,VALID,17,VALID,0.0199855,
2007-03-17, 00:40:01,VALID,917.137,VALID,0,VALID,97.6986,VALID,199.898,VALID,20.2988,VALID,3,VALID,0.262277,
2007-03-17, 00:41:01,VALID,917.141,VALID,0,VALID,97.4787,VALID,196.825,VALID,20.3283,VALID,20,VALID,0.541788,
2007-03-17, 00:42:00,VALID,917.152,VALID,0,VALID,97.8474,VALID,199.712,VALID,20.4616,VALID,35,VALID,0.426962,
2007-03-17, 00:43:00,VALID,917.156,VALID,0,VALID,96.9662,VALID,202.479,VALID,20.52,VALID,355,VALID,0.682031,
2007-03-17, 00:44:01,VALID,917.16,VALID,0,VALID,96.6839,VALID,208.151,VALID,20.5655,VALID,344,VALID,0.450076,
2007-03-17, 00:45:01,VALID,917.162,VALID,0,VALID,96.352,VALID,202.887,VALID,20.5655,VALID,326,VALID,0.377486,
2007-03-17, 00:46:00,VALID,917.167,VALID,0,VALID,96.6508,VALID,201.155,VALID,20.579,VALID,326,VALID,0.0147372,
2007-03-17, 00:47:00,VALID,917.169,VALID,0,VALID,96.525,VALID,201.478,VALID,20.6014,VALID,326,VALID,0.177989,
2007-03-17, 00:48:00,VALID,917.174,VALID,0,VALID,96.4283,VALID,206.487,VALID,20.5917,VALID,340,VALID,0.186012,
2007-03-17, 00:49:00,VALID,917.17,VALID,0,VALID,96.1676,VALID,208.457,VALID,20.6047,VALID,349,VALID,0.152876,
2007-03-17, 00:50:00,VALID,917.194,VALID,0,VALID,96.4143,VALID,209.849,VALID,20.6209,VALID,349,VALID,0.00669643,
2007-03-17, 00:51:01,VALID,917.194,VALID,0,VALID,96.8136,VALID,210.019,VALID,20.6858,VALID,349,VALID,0,
2007-03-17, 00:52:00,VALID,917.209,VALID,0,VALID,96.7348,VALID,213.126,VALID,20.7669,VALID,348,VALID,0.185937,
2007-03-17, 00:53:00,VALID,917.22,VALID,0,VALID,96.0532,VALID,222.856,VALID,20.7604,VALID,352,VALID,0.108817,
2007-03-17, 00:54:01,VALID,917.225,VALID,0,VALID,96.4677,VALID,209.543,VALID,20.8551,VALID,355,VALID,0.00400641,
2007-03-17, 00:55:00,VALID,917.231,VALID,0,VALID,96.4627,VALID,218.221,VALID,20.9587,VALID,355,VALID,0.0552455,
2007-03-17, 00:56:00,VALID,917.227,VALID,0,VALID,96.1219,VALID,219.341,VALID,21.0174,VALID,357,VALID,0.137091,
2007-03-17, 00:57:00,VALID,917.23,VALID,0,VALID,95.8739,VALID,215.164,VALID,21.1153,VALID,352,VALID,0.378906,
2007-03-17, 00:58:00,VALID,917.248,VALID,0,VALID,95.3881,VALID,218.492,VALID,21.1694,VALID,350,VALID,0.412674,
2007-03-17, 00:59:01,VALID,917.256,VALID,0,VALID,95.3169,VALID,217.796,VALID,21.2638,VALID,354,VALID,0.308494,
2007-03-17, 01:00:00,VALID,917.269,VALID,0,VALID,94.5438,VALID,212.906,VALID,21.3185,VALID,355,VALID,0.312891,
2007-03-17, 01:01:01,VALID,917.288,VALID,0,VALID,94.7918,VALID,219.545,VALID,21.4026,VALID,357,VALID,0.389101,
2007-03-17, 01:02:00,VALID,917.284,VALID,0,VALID,94.6074,VALID,224.894,VALID,21.4965,VALID,28,VALID,0.693407,
2007-03-17, 01:03:00,VALID,917.292,VALID,0,VALID,94.5133,VALID,233.13,VALID,21.5906,VALID,14,VALID,0.396577,
2007-03-17, 01:04:00,VALID,917.287,VALID,0,VALID,93.5519,VALID,232.705,VALID,21.5936,VALID,352,VALID,0.449491,
2007-03-17, 01:05:00,VALID,917.294,VALID,0,VALID,93.1082,VALID,232.671,VALID,21.5933,VALID,25,VALID,0.489453,
2007-03-17, 01:06:00,VALID,917.3,VALID,0,VALID,91.9179,VALID,226.643,VALID,21.4994,VALID,326,VALID,0.675,
2007-03-17, 01:07:01,VALID,917.303,VALID,0,VALID,93.0954,VALID,231.296,VALID,21.4805,VALID,352,VALID,0.706641,
2007-03-17, 01:08:00,VALID,917.292,VALID,0,VALID,93.3014,VALID,240.703,VALID,21.5032,VALID,24,VALID,0.852896,
2007-03-17, 01:09:00,VALID,917.294,VALID,0,VALID,93.1272,VALID,244.184,VALID,21.4575,VALID,355,VALID,0.317708,
2007-03-17, 01:10:01,VALID,917.307,VALID,0,VALID,92.9238,VALID,252.929,VALID,21.4223,VALID,340,VALID,0.26019,
2007-03-17, 01:11:01,VALID,917.322,VALID,0,VALID,92.9835,VALID,269.112,VALID,21.3861,VALID,327,VALID,0.485283,
2007-03-17, 01:12:01,VALID,917.335,VALID,0,VALID,93.8876,VALID,259.688,VALID,21.4256,VALID,19,VALID,0.479861,
2007-03-17, 01:13:01,VALID,917.346,VALID,0,VALID,93.1908,VALID,279.148,VALID,21.4094,VALID,310,VALID,0.522905,
2007-03-17, 01:14:00,VALID,917.371,VALID,0,VALID,93.5087,VALID,278.214,VALID,21.3707,VALID,303,VALID,0.175495,
2007-03-17, 01:15:01,VALID,917.393,VALID,0,VALID,94.0072,VALID,239.735,VALID,21.3801,VALID,303,VALID,0,
2007-03-17, 01:16:01,VALID,917.403,VALID,0,VALID,94.3251,VALID,279.827,VALID,21.4713,VALID,303,VALID,0,
2007-03-17, 01:17:01,VALID,917.418,VALID,0,VALID,94.7879,VALID,286.297,VALID,21.6109,VALID,303,VALID,0.0440168,
2007-03-17, 01:18:01,VALID,917.429,VALID,0,VALID,94.3683,VALID,297.198,VALID,21.7437,VALID,334,VALID,0.149325,
2007-03-17, 01:19:01,VALID,917.44,VALID,0,VALID,92.8487,VALID,311.123,VALID,21.7505,VALID,316,VALID,0.316315,
2007-03-17, 01:20:01,VALID,917.445,VALID,0,VALID,92.321,VALID,321.515,VALID,21.6923,VALID,281,VALID,0.0822917,
2007-03-17, 01:21:01,VALID,917.45,VALID,0,VALID,92.7864,VALID,300.849,VALID,21.7345,VALID,299,VALID,0.142969,
2007-03-17, 01:22:01,VALID,917.462,VALID,0,VALID,92.7038,VALID,301.614,VALID,21.7732,VALID,297,VALID,0.162388,
2007-03-17, 01:23:01,VALID,917.463,VALID,0,VALID,92.0871,VALID,315.928,VALID,21.8025,VALID,296,VALID,0.31577,
2007-03-17, 01:24:00,VALID,917.482,VALID,0,VALID,90.0347,VALID,330.804,VALID,21.6206,VALID,287,VALID,0.65968,
2007-03-17, 01:25:00,VALID,917.491,VALID,0,VALID,91.3826,VALID,339.005,VALID,21.6404,VALID,272,VALID,0.0175305,
2007-03-17, 01:26:00,VALID,917.505,VALID,0,VALID,91.7526,VALID,333.86,VALID,21.7573,VALID,272,VALID,0,
2007-03-17, 01:27:00,VALID,917.508,VALID,0,VALID,92.2422,VALID,338.19,VALID,21.8928,VALID,4,VALID,0.724746,
2007-03-17, 01:28:00,VALID,917.519,VALID,0,VALID,92.0362,VALID,353.796,VALID,22.0462,VALID,334,VALID,0.551314,
2007-03-17, 01:29:00,VALID,917.544,VALID,0,VALID,90.8485,VALID,371.218,VALID,22.0911,VALID,322,VALID,0.438045,
2007-03-17, 01:30:00,VALID,917.562,VALID,0,VALID,89.6736,VALID,380.897,VALID,22.0622,VALID,340,VALID,0.456944,
2007-03-17, 01:31:00,VALID,917.573,VALID,0,VALID,89.8096,VALID,377.688,VALID,22.1826,VALID,32,VALID,0.786399,
2007-03-17, 01:32:00,VALID,917.586,VALID,0,VALID,89.4358,VALID,362.863,VALID,22.3282,VALID,31,VALID,0.706854,
2007-03-17, 01:33:00,VALID,917.602,VALID,0,VALID,88.4515,VALID,347.088,VALID,22.4297,VALID,36,VALID,0.552202,
2007-03-17, 01:34:00,VALID,917.619,VALID,0,VALID,88.6016,VALID,344.32,VALID,22.4917,VALID,17,VALID,0.286222,
2007-03-17, 01:35:00,VALID,917.641,VALID,0,VALID,88.463,VALID,344.541,VALID,22.6077,VALID,10,VALID,0.12571,
2007-03-17, 01:36:00,VALID,917.645,VALID,0,VALID,88.4871,VALID,352.216,VALID,22.7095,VALID,22,VALID,0.640625,
2007-03-17, 01:37:00,VALID,917.656,VALID,0,VALID,87.3859,VALID,344.694,VALID,22.8099,VALID,38,VALID,1.10792,
2007-03-17, 01:38:00,VALID,917.652,VALID,0,VALID,86.1741,VALID,335.439,VALID,22.7772,VALID,343,VALID,0.956364,
2007-03-17, 01:39:00,VALID,917.658,VALID,0,VALID,84.8376,VALID,325.234,VALID,22.6416,VALID,336,VALID,0.605382,
2007-03-17, 01:40:00,VALID,917.656,VALID,0,VALID,87.0401,VALID,329.734,VALID,22.6989,VALID,25,VALID,0.254934,
2007-03-17, 01:41:00,VALID,917.662,VALID,0,VALID,86.5441,VALID,334.251,VALID,22.7866,VALID,2,VALID,0.294017,
2007-03-17, 01:42:00,VALID,917.657,VALID,0,VALID,86.6217,VALID,336.068,VALID,22.8028,VALID,350,VALID,0.330031,
2007-03-17, 01:43:00,VALID,917.66,VALID,0,VALID,86.2186,VALID,331.007,VALID,22.8005,VALID,341,VALID,0.578125,
2007-03-17, 01:44:00,VALID,917.664,VALID,0,VALID,86.5594,VALID,332.671,VALID,22.742,VALID,1,VALID,0.5359,
2007-03-17, 01:45:00,VALID,917.671,VALID,0,VALID,86.9841,VALID,348.362,VALID,22.8359,VALID,39,VALID,0.71782,
2007-03-17, 01:46:00,VALID,917.663,VALID,0,VALID,86.3788,VALID,355.664,VALID,22.8651,VALID,27,VALID,1.04135,
2007-03-17, 01:47:00,VALID,917.678,VALID,0,VALID,86.6382,VALID,387.961,VALID,22.8459,VALID,27,VALID,1.19322,
2007-03-17, 01:48:00,VALID,917.683,VALID,0,VALID,86.5899,VALID,400.357,VALID,22.8684,VALID,26,VALID,1.11923,
2007-03-17, 01:49:00,VALID,917.691,VALID,0,VALID,85.1352,VALID,422.687,VALID,22.8616,VALID,10,VALID,1.06141,
2007-03-17, 01:50:00,VALID,917.693,VALID,0,VALID,82.7776,VALID,408.78,VALID,22.7355,VALID,341,VALID,0.793423,
2007-03-17, 01:51:00,VALID,917.709,VALID,0,VALID,85.3348,VALID,406.725,VALID,22.8132,VALID,22,VALID,0.860828,
2007-03-17, 01:52:00,VALID,917.724,VALID,0,VALID,86.7946,VALID,442.079,VALID,22.9859,VALID,12,VALID,0.517187,
2007-03-17, 01:53:00,VALID,917.723,VALID,0,VALID,85.2484,VALID,445.118,VALID,23.0807,VALID,26,VALID,1.27053,
2007-03-17, 01:54:00,VALID,917.731,VALID,0,VALID,83.6868,VALID,485.414,VALID,23.1704,VALID,18,VALID,0.826758,
2007-03-17, 01:55:00,VALID,917.747,VALID,0,VALID,82.269,VALID,495.518,VALID,23.2818,VALID,34,VALID,1.18998,
2007-03-17, 01:56:00,VALID,917.753,VALID,0,VALID,80.8143,VALID,493.429,VALID,23.2484,VALID,35,VALID,1.38917,
2007-03-17, 01:57:00,VALID,917.758,VALID,0,VALID,83.3372,VALID,489.591,VALID,23.2262,VALID,39,VALID,1.23299,
2007-03-17, 01:58:00,VALID,917.774,VALID,0,VALID,83.7428,VALID,518.068,VALID,23.3269,VALID,48,VALID,1.32344,
2007-03-17, 01:59:00,VALID,917.782,VALID,0,VALID,81.6383,VALID,562.881,VALID,23.3987,VALID,21,VALID,1.51982,
2007-03-17, 02:00:00,VALID,917.792,VALID,0,VALID,80.1747,VALID,549.856,VALID,23.4699,VALID,23,VALID,1.70131,
2007-03-17, 02:01:00,VALID,917.797,VALID,0,VALID,80.2268,VALID,530.889,VALID,23.4637,VALID,31,VALID,1.41482,
2007-03-17, 02:02:00,VALID,917.8,VALID,0,VALID,82.0083,VALID,539.651,VALID,23.5576,VALID,25,VALID,0.949119,
2007-03-17, 02:03:00,VALID,917.816,VALID,0,VALID,80.6528,VALID,589.116,VALID,23.6908,VALID,45,VALID,0.967988,
2007-03-17, 02:04:00,VALID,917.813,VALID,0,VALID,80.0094,VALID,598.71,VALID,23.8322,VALID,35,VALID,1.74851,
2007-03-17, 02:05:00,VALID,917.83,VALID,0,VALID,77.18,VALID,606.538,VALID,23.8809,VALID,56,VALID,1.36445,
2007-03-17, 02:06:00,VALID,917.827,VALID,0,VALID,79.4918,VALID,620.581,VALID,23.9362,VALID,70,VALID,1.56445,
2007-03-17, 02:07:00,VALID,917.835,VALID,0,VALID,80.7927,VALID,603.091,VALID,23.9884,VALID,28,VALID,1.47847,
2007-03-17, 02:08:00,VALID,917.852,VALID,0,VALID,80.0907,VALID,604.755,VALID,23.9492,VALID,31,VALID,1.35417,
2007-03-17, 02:09:00,VALID,917.852,VALID,0,VALID,79.2311,VALID,586.127,VALID,23.9884,VALID,41,VALID,1.92645,
2007-03-17, 02:10:00,VALID,917.871,VALID,0,VALID,78.6386,VALID,584.056,VALID,24.0446,VALID,34,VALID,1.93945,
2007-03-17, 02:11:00,VALID,917.874,VALID,0,VALID,78.7835,VALID,609.748,VALID,24.0892,VALID,38,VALID,1.79808,
2007-03-17, 02:12:00,VALID,917.873,VALID,0,VALID,77.7751,VALID,632.808,VALID,24.1385,VALID,58,VALID,1.46271,
2007-03-17, 02:13:00,VALID,917.873,VALID,0,VALID,78.4288,VALID,635.151,VALID,24.2318,VALID,26,VALID,1.37317,
2007-03-17, 02:14:00,VALID,917.869,VALID,0,VALID,78.5585,VALID,653.083,VALID,24.4306,VALID,33,VALID,2.0071,
2007-03-17, 02:15:00,VALID,917.874,VALID,0,VALID,76.0076,VALID,657.617,VALID,24.581,VALID,30,VALID,1.82884,
2007-03-17, 02:16:00,VALID,917.897,VALID,0,VALID,76.1055,VALID,664.613,VALID,24.6346,VALID,17,VALID,1.00781,
2007-03-17, 02:17:00,VALID,917.892,VALID,0,VALID,75.6465,VALID,652.913,VALID,24.6856,VALID,18,VALID,1.4708,
2007-03-17, 02:18:00,VALID,917.877,VALID,0,VALID,76.4921,VALID,667.55,VALID,24.6765,VALID,53,VALID,1.49926,
2007-03-17, 02:19:00,VALID,917.855,VALID,0,VALID,79.0938,VALID,661.573,VALID,24.7025,VALID,36,VALID,2.49437,
2007-03-17, 02:20:00,VALID,917.866,VALID,0,VALID,76.7286,VALID,654.085,VALID,24.5999,VALID,9,VALID,1.75981,
2007-03-17, 02:21:00,VALID,917.875,VALID,0,VALID,76.5684,VALID,672.543,VALID,24.5553,VALID,29,VALID,1.53404,
2007-03-17, 02:22:00,VALID,917.881,VALID,0,VALID,78.6348,VALID,691.935,VALID,24.6291,VALID,33,VALID,1.33041,
2007-03-17, 02:23:00,VALID,917.875,VALID,0,VALID,76.3713,VALID,694.703,VALID,24.7308,VALID,30,VALID,1.2778,
2007-03-17, 02:24:00,VALID,917.875,VALID,0,VALID,76.8685,VALID,692.19,VALID,24.763,VALID,59,VALID,1.24328,
2007-03-17, 02:25:00,VALID,917.856,VALID,0,VALID,76.899,VALID,666.124,VALID,24.8836,VALID,47,VALID,1.27943,
2007-03-17, 02:26:00,VALID,917.872,VALID,0,VALID,75.616,VALID,660.639,VALID,24.9512,VALID,37,VALID,0.745821,
2007-03-17, 02:27:00,VALID,917.868,VALID,0,VALID,75.5448,VALID,693.99,VALID,25.0454,VALID,56,VALID,1.21001,
2007-03-17, 02:28:00,VALID,917.863,VALID,0,VALID,74.9789,VALID,703.72,VALID,25.1237,VALID,113,VALID,0.616257,
2007-03-17, 02:29:00,VALID,917.871,VALID,0,VALID,74.6406,VALID,725.744,VALID,25.2313,VALID,184,VALID,0.458891,
2007-03-17, 02:30:00,VALID,917.869,VALID,0,VALID,73.5305,VALID,742.334,VALID,25.2606,VALID,222,VALID,0.296875,
2007-03-17, 02:31:00,VALID,917.866,VALID,0,VALID,72.4598,VALID,751.69,VALID,25.3802,VALID,171,VALID,0.622533,
2007-03-17, 02:32:00,VALID,917.877,VALID,0,VALID,73.0232,VALID,742.809,VALID,25.5755,VALID,96,VALID,0.690874,
2007-03-17, 02:33:00,VALID,917.86,VALID,0,VALID,73.8599,VALID,736.849,VALID,25.7901,VALID,40,VALID,0.99272,
2007-03-17, 02:34:00,VALID,917.862,VALID,0,VALID,73.1605,VALID,745.458,VALID,25.7481,VALID,343,VALID,0.768555,
2007-03-17, 02:35:00,VALID,917.862,VALID,0,VALID,72.4993,VALID,713.467,VALID,25.7192,VALID,296,VALID,0.752668,
2007-03-17, 02:36:00,VALID,917.861,VALID,0,VALID,70.4011,VALID,687.927,VALID,25.4852,VALID,281,VALID,1.24104,
2007-03-17, 02:37:00,VALID,917.873,VALID,0,VALID,70.8945,VALID,692.988,VALID,25.2346,VALID,275,VALID,0.801153,
2007-03-17, 02:38:00,VALID,917.863,VALID,0,VALID,71.5239,VALID,667.449,VALID,25.1637,VALID,246,VALID,0.744191,
2007-03-17, 02:39:00,VALID,917.873,VALID,0,VALID,71.6854,VALID,676.194,VALID,25.3233,VALID,199,VALID,0.660792,
2007-03-17, 02:40:00,VALID,917.875,VALID,0,VALID,74.1434,VALID,741.247,VALID,25.6376,VALID,49,VALID,1.22637,
2007-03-17, 02:41:00,VALID,917.882,VALID,0,VALID,74.0226,VALID,741.366,VALID,25.9074,VALID,47,VALID,0.903161,
2007-03-17, 02:42:00,VALID,917.891,VALID,0,VALID,72.1012,VALID,779.811,VALID,26.0635,VALID,39,VALID,1.00799,
2007-03-17, 02:43:00,VALID,917.908,VALID,0,VALID,72.9583,VALID,735.304,VALID,26.2397,VALID,12,VALID,1.14283,
2007-03-17, 02:44:00,VALID,917.905,VALID,0,VALID,71.5328,VALID,657.549,VALID,26.2888,VALID,16,VALID,1.46094,
2007-03-17, 02:45:00,VALID,917.929,VALID,0,VALID,72.1152,VALID,661.76,VALID,26.0349,VALID,356,VALID,0.808416,
2007-03-17, 02:46:00,VALID,917.938,VALID,0,VALID,70.4558,VALID,715.827,VALID,26.0749,VALID,21,VALID,1.60454,
2007-03-17, 02:47:00,VALID,917.926,VALID,0,VALID,70.7864,VALID,783.937,VALID,25.9855,VALID,38,VALID,1.41046,
2007-03-17, 02:48:00,VALID,917.923,VALID,0,VALID,73.2864,VALID,861.794,VALID,26.1347,VALID,57,VALID,0.661577,
2007-03-17, 02:49:00,VALID,917.922,VALID,0,VALID,70.2193,VALID,839.498,VALID,26.4436,VALID,59,VALID,0.371761,
2007-03-17, 02:50:00,VALID,917.915,VALID,0,VALID,70.4456,VALID,862.439,VALID,26.7883,VALID,30,VALID,1.19773,
2007-03-17, 02:51:00,VALID,917.91,VALID,0,VALID,69.6229,VALID,852.506,VALID,26.8963,VALID,8,VALID,1.00591,
2007-03-17, 02:52:00,VALID,917.907,VALID,0,VALID,69.5313,VALID,858.245,VALID,27.0625,VALID,68,VALID,1.11637,
2007-03-17, 02:53:00,VALID,917.873,VALID,0,VALID,71.2416,VALID,922.365,VALID,27.0755,VALID,14,VALID,2.08761,
2007-03-17, 02:54:00,VALID,917.877,VALID,0,VALID,70.0502,VALID,917.542,VALID,26.923,VALID,32,VALID,1.44207,
2007-03-17, 02:55:00,VALID,917.895,VALID,0,VALID,69.0252,VALID,878.894,VALID,26.8804,VALID,301,VALID,0.712028,
2007-03-17, 02:56:00,VALID,917.891,VALID,0,VALID,69.3749,VALID,791.443,VALID,26.8251,VALID,35,VALID,1.25872,
2007-03-17, 02:57:00,VALID,917.87,VALID,0,VALID,68.9311,VALID,726.049,VALID,26.8284,VALID,32,VALID,1.42336,
2007-03-17, 02:58:00,VALID,917.868,VALID,0,VALID,69.614,VALID,692.699,VALID,26.6111,VALID,327,VALID,1.14634,
2007-03-17, 02:59:00,VALID,917.884,VALID,0,VALID,71.5049,VALID,638.717,VALID,26.6228,VALID,31,VALID,1.2513,
2007-03-17, 03:00:00,VALID,917.887,VALID,0,VALID,68.659,VALID,613.059,VALID,26.6641,VALID,258,VALID,0.453906,
2007-03-17, 03:01:00,VALID,917.886,VALID,0,VALID,69.1397,VALID,616.897,VALID,26.7057,VALID,357,VALID,0.479992,
2007-03-17, 03:02:00,VALID,917.882,VALID,0,VALID,68.1784,VALID,629.327,VALID,26.9044,VALID,40,VALID,0.741122,
2007-03-17, 03:03:00,VALID,917.885,VALID,0,VALID,69.656,VALID,678.282,VALID,27.0052,VALID,38,VALID,0.706854,
2007-03-17, 03:04:00,VALID,917.878,VALID,0,VALID,68.5382,VALID,771.779,VALID,27.0803,VALID,284,VALID,0.424293,
2007-03-17, 03:05:00,VALID,917.881,VALID,0,VALID,68.0995,VALID,832.129,VALID,26.9256,VALID,256,VALID,0.650254,
2007-03-17, 03:06:00,VALID,917.876,VALID,0,VALID,67.5654,VALID,779.318,VALID,26.7171,VALID,256,VALID,0.834872,
2007-03-17, 03:07:00,VALID,917.868,VALID,0,VALID,69.2935,VALID,710.58,VALID,26.5643,VALID,264,VALID,0.478423,
2007-03-17, 03:08:00,VALID,917.875,VALID,0,VALID,70.6364,VALID,659.552,VALID,26.6117,VALID,349,VALID,1.16897,
2007-03-17, 03:09:00,VALID,917.871,VALID,0,VALID,70.6796,VALID,650.179,VALID,26.762,VALID,43,VALID,1.78487,
2007-03-17, 03:10:00,VALID,917.882,VALID,0,VALID,70.0362,VALID,652.438,VALID,26.8371,VALID,40,VALID,0.826215,
2007-03-17, 03:11:00,VALID,917.881,VALID,0,VALID,70.0781,VALID,695.79,VALID,26.9347,VALID,295,VALID,0.481771,
2007-03-17, 03:12:00,VALID,917.881,VALID,0,VALID,69.5593,VALID,703.821,VALID,27.055,VALID,3,VALID,0.683689,
2007-03-17, 03:13:00,VALID,917.884,VALID,0,VALID,70.2816,VALID,645.407,VALID,27.1262,VALID,325,VALID,0.586523,
2007-03-17, 03:14:00,VALID,917.898,VALID,0,VALID,71.791,VALID,619.749,VALID,27.0998,VALID,323,VALID,0.591406,
2007-03-17, 03:15:00,VALID,917.891,VALID,0,VALID,71.0903,VALID,609.68,VALID,27.2147,VALID,16,VALID,0.44215,
2007-03-17, 03:16:00,VALID,917.885,VALID,0,VALID,70.1595,VALID,583.886,VALID,27.4424,VALID,305,VALID,0.343559,
2007-03-17, 03:17:00,VALID,917.879,VALID,0,VALID,68.097,VALID,563.526,VALID,27.2989,VALID,281,VALID,0.570508,
2007-03-17, 03:18:00,VALID,917.881,VALID,0,VALID,71.0382,VALID,551.113,VALID,27.1558,VALID,329,VALID,0.470749,
2007-03-17, 03:19:00,VALID,917.884,VALID,0,VALID,71.1844,VALID,545.713,VALID,27.2508,VALID,13,VALID,0.37862,
2007-03-17, 03:20:00,VALID,917.887,VALID,0,VALID,69.2109,VALID,548.583,VALID,27.3618,VALID,8,VALID,0.905678,
2007-03-17, 03:21:00,VALID,917.877,VALID,0,VALID,71.1819,VALID,547.462,VALID,27.3292,VALID,33,VALID,1.02269,
2007-03-17, 03:22:00,VALID,917.877,VALID,0,VALID,71.2823,VALID,543.641,VALID,27.3549,VALID,14,VALID,0.874619,
2007-03-17, 03:23:00,VALID,917.883,VALID,0,VALID,70.6338,VALID,535.355,VALID,27.4008,VALID,24,VALID,0.333394,
2007-03-17, 03:24:00,VALID,917.888,VALID,0,VALID,70.7572,VALID,525.523,VALID,27.485,VALID,347,VALID,0.457118,
2007-03-17, 03:25:00,VALID,917.899,VALID,0,VALID,70.9492,VALID,512.363,VALID,27.57,VALID,10,VALID,0.401486,
2007-03-17, 03:26:00,VALID,917.913,VALID,0,VALID,70.274,VALID,499.729,VALID,27.7095,VALID,41,VALID,0.575521,
2007-03-17, 03:27:00,VALID,917.908,VALID,0,VALID,67.5095,VALID,484.82,VALID,27.8985,VALID,39,VALID,0.987043,
2007-03-17, 03:28:00,VALID,917.9,VALID,0,VALID,66.7732,VALID,476.007,VALID,28.0287,VALID,38,VALID,1.14618,
2007-03-17, 03:29:00,VALID,917.909,VALID,0,VALID,67.8579,VALID,474.869,VALID,28.0059,VALID,35,VALID,1.0004,
2007-03-17, 03:30:00,VALID,917.914,VALID,0,VALID,66.8877,VALID,477.229,VALID,28.0742,VALID,143,VALID,0.379439,
2007-03-17, 03:31:00,VALID,917.926,VALID,0,VALID,63.7036,VALID,484.582,VALID,27.909,VALID,254,VALID,0.440625,
2007-03-17, 03:32:00,VALID,917.915,VALID,0,VALID,62.8986,VALID,492.393,VALID,27.5468,VALID,263,VALID,0.323742,
2007-03-17, 03:33:00,VALID,917.915,VALID,0,VALID,63.0029,VALID,498.353,VALID,27.4077,VALID,260,VALID,0.437847,
2007-03-17, 03:34:00,VALID,917.914,VALID,0,VALID,64.2745,VALID,500.935,VALID,27.4337,VALID,255,VALID,0.213914,
2007-03-17, 03:35:00,VALID,917.907,VALID,0,VALID,65.803,VALID,504.178,VALID,27.6285,VALID,334,VALID,0.509909,
2007-03-17, 03:36:00,VALID,917.881,VALID,0,VALID,64.8989,VALID,504.5,VALID,27.5902,VALID,40,VALID,0.970052,
2007-03-17, 03:37:00,VALID,917.891,VALID,0,VALID,67.5909,VALID,506.012,VALID,27.4229,VALID,34,VALID,1.0609,